N1JFY Weather Reports


time (UTC)temp
C
wind
direction
speed
KPH
gust
KPH
rain 1hr
cm
rain 24hr
cm
rain mn
cm
humidity
%
barometer
mb
20260507154543 11 360 11.3 19.3 0.00 3.66 1.57 65 1002.0
20260507153041 11 360 9.7 19.3 0.00 3.66 1.57 70 1002.1
20260507151538 10 336 14.5 20.9 0.03 3.66 1.57 70 1002.3
20260507150036 10 360 11.3 17.7 0.05 3.66 1.57 70 1002.2
20260507144547 9 360 4.8 17.7 0.08 3.66 1.57 76 1002.2
20260507143033 8 355 8.0 19.3 0.08 3.66 1.57 76 1002.3
20260507141531 8 360 12.9 20.9 0.08 3.63 1.55 80 1002.4
20260507140027 8 325 9.7 20.9 0.08 3.61 1.52 82 1002.7
20260507134529 7 360 11.3 17.7 0.08 3.58 1.50 83 1002.7
20260507133027 7 325 11.3 17.7 0.10 3.58 1.50 83 1002.8
20260507131525 7 326 11.3 16.1 0.13 3.56 1.45 84 1003.0
20260507130025 6 360 8.0 17.7 0.13 3.53 1.42 86 1003.0
20260507124524 6 360 12.9 17.7 0.13 3.51 1.42 86 1002.9
20260507123023 6 360 8.0 22.5 0.10 3.45 1.37 87 1003.3
20260507121522 6 360 14.5 20.9 0.10 3.43 1.35 88 1003.2
20260507120021 5 320 12.9 20.9 0.10 3.40 1.32 89 1003.0
20260507114521 5 360 11.3 24.1 0.10 3.38 1.30 88 1002.9
20260507113027 5 360 8.0 17.7 0.10 3.35 1.27 89 1002.9
20260507111533 5 360 8.0 16.1 0.13 3.33 1.24 89 1003.1
20260507110019 5 269 4.8 11.3 0.13 3.30 1.22 89 1003.1
20260507104520 5 278 6.4 17.7 0.13 3.28 1.19 90 1003.1
20260507103016 5 360 8.0 16.1 0.10 3.23 1.14 90 1002.8
20260507101514 5 326 6.4 19.3 0.13 3.20 1.12 91 1002.3
20260507100018 5 360 6.4 17.7 0.13 3.17 1.09 90 1002.1
20260507094512 5 360 9.7 16.1 0.15 3.17 1.07 91 1002.1
20260507093019 5 360 9.7 17.7 0.13 3.12 1.02 90 1002.3
20260507091510 5 360 14.5 30.6 0.15 3.10 0.99 90 1002.1
20260507090017 5 326 16.1 27.4 0.18 3.07 0.97 89 1002.3
20260507084504 5 360 9.7 30.6 0.15 3.02 0.91 90 1002.2
20260507083002 6 360 14.5 25.7 0.18 3.00 0.89 90 1001.8
20260507081602 6 286 14.5 22.5 0.18 2.92 0.84 92 1001.8
20260507080059 6 329 8.0 14.5 0.18 2.87 0.79 92 1001.6
20260507074558 6 360 6.4 17.7 0.18 2.84 0.76 92 1002.0
20260507073102 6 360 0.0 6.4 0.18 2.82 0.71 93 1001.9
20260507073002 6 360 0.0 8.0 0.18 2.82 0.71 93 1001.9
20260507071557 6 360 9.7 24.1 0.18 2.77 0.66 92 1001.6
20260507070059 6 325 11.3 19.3 0.18 2.72 0.61 93 1001.4
20260507064505 6 360 12.9 20.9 0.18 2.67 0.56 93 1000.8
20260507063053 7 339 9.7 19.3 0.20 2.64 0.53 93 1000.9
20260507061552 7 360 11.3 27.4 0.20 2.59 0.48 93 1001.3
20260507060056 7 320 17.7 22.5 0.20 2.54 0.43 93 1001.3
20260507054551 7 325 16.1 32.2 0.23 2.49 0.38 93 1001.3
20260507053053 7 360 20.9 32.2 0.23 2.44 0.33 93 1001.3
20260507051548 7 360 22.5 33.8 0.23 2.39 0.28 94 1001.2
20260507050046 7 360 25.7 37.0 0.23 2.34 0.23 94 1001.2
20260507044555 7 360 12.9 27.4 0.20 2.26 0.15 94 1001.3
20260507043038 7 326 11.3 17.7 0.20 2.21 0.10 94 1000.8
20260507041535 8 340 8.0 14.5 0.20 2.16 0.05 94 1000.9
20260507040034 8 36 4.8 12.9 0.20 2.11 0.00 94 1000.8
20260507034534 9 325 4.8 12.9 0.20 2.06 2.06 93 1000.9
20260507033028 11 193 0.0 0.0 0.20 2.01 2.01 95 1001.2
20260507031523 11 193 0.0 0.0 0.18 1.93 1.93 95 1001.5
20260507030028 11 185 0.0 6.4 0.18 1.88 1.88 95 1001.8
20260507024520 11 207 0.0 12.9 0.18 1.85 1.83 94 1002.1
20260507023020 11 195 8.0 19.3 0.20 1.83 1.80 94 1002.3
20260507021520 11 167 6.4 20.9 0.20 1.78 1.75 94 1002.5
20260507020015 11 221 12.9 20.9 0.20 1.73 1.70 94 1002.8
20260507014513 11 192 8.0 19.3 0.23 1.75 1.65 94 1003.1
20260507013010 11 205 11.3 27.4 0.23 1.70 1.60 94 1003.4
20260507011509 11 176 8.0 22.5 0.23 1.65 1.55 94 1003.4
20260507010008 11 173 9.7 16.1 0.25 1.60 1.50 95 1003.6
20260507004508 11 166 8.0 17.7 0.23 1.60 1.42 95 1003.6
20260507003006 11 186 4.8 19.3 0.23 1.55 1.37 94 1003.7
20260507001510 11 160 9.7 24.1 0.23 1.45 1.30 94 1003.7
20260507000010 11 195 11.3 20.9 0.23 1.42 1.24 95 1003.9
20260506234504 11 200 1.6 14.5 0.23 1.37 1.19 94 1004.1
20260506233105 11 202 8.0 17.7 0.23 1.32 1.14 94 1004.1
20260506233001 11 208 4.8 12.9 0.25 1.32 1.14 94 1004.1
20260506231600 11 217 8.0 19.3 0.23 1.24 1.07 94 1004.2
20260506230100 11 173 9.7 22.5 0.23 1.19 1.02 94 1004.0
20260506224607 11 182 8.0 19.3 0.25 1.14 0.97 94 1004.0
20260506223058 11 175 9.7 20.9 0.25 1.09 0.91 94 1004.1
20260506221557 11 181 8.0 19.3 0.25 1.02 0.84 94 1004.1
20260506220059 11 188 11.3 27.4 0.25 0.97 0.79 94 1004.1
20260506214609 11 201 9.7 22.5 0.23 0.89 0.71 94 1004.1
20260506213055 11 182 11.3 24.1 0.23 0.84 0.66 94 1004.1
20260506211554 11 184 11.3 19.3 0.20 0.76 0.58 94 1004.4
20260506210054 11 139 8.0 20.9 0.18 0.71 0.53 94 1004.3
20260506204602 11 194 11.3 20.9 0.18 0.66 0.48 94 1004.5
20260506203052 12 149 6.4 14.5 0.15 0.61 0.43 94 1004.5
20260506201551 12 166 1.6 12.9 0.13 0.56 0.38 94 1004.4
20260506200048 12 182 8.0 16.1 0.15 0.53 0.36 93 1004.8
20260506194559 12 173 0.0 12.9 0.10 0.48 0.30 93 1004.8
20260506193049 12 168 6.4 9.7 0.10 0.46 0.28 93 1005.3
20260506191545 12 181 6.4 16.1 0.08 0.43 0.25 93 1005.2
20260506190045 12 198 8.0 19.3 0.05 0.38 0.20 93 1005.0
20260506184544 12 163 0.0 9.7 0.10 0.38 0.20 93 1005.0
20260506183046 11 133 0.0 8.0 0.10 0.36 0.18 93 1005.2
20260506181547 11 136 0.0 4.8 0.13 0.36 0.18 93 1005.6
20260506180049 11 178 0.0 0.0 0.10 0.33 0.15 92 1006.1
20260506174542 11 164 1.6 6.4 0.08 0.28 0.10 92 1006.4
20260506173042 11 165 0.0 6.4 0.05 0.25 0.08 91 1006.4
20260506171552 11 147 0.0 0.0 0.03 0.23 0.05 89 1006.6
20260506170043 12 141 0.0 4.8 0.03 0.23 0.05 88 1006.9
20260506164541 11 169 0.0 3.2 0.00 0.20 0.03 87 1007.1
20260506163044 11 175 0.0 16.1 0.00 0.20 0.03 87 1007.3
20260506161540 11 98 0.0 1.6 0.00 0.20 0.03 89 1007.0
20260506160041 11 113 3.2 12.9 0.00 0.20 0.03 89 1007.0